Location: Dompnac
(44.5644°N, 4.1026°E)
Time: 14:32:48
(UTC+00:00)

Cosmos 1891 Rocket - Pass Details

Date: 26 January 2021
Orbit: 934 x 1018 km, 82.9° (Epoch: 05 March)

Event Time Altitude Azimuth Distance (km) Brightness Sun altitude
Exits shadow 03:42:57 40° 114° (ESE) 1,381 5.5 -36.5°
Maximum altitude 03:43:57 43° 90° (E) 1,317 5.4 -36.3°
Drops below altitude 10° 03:49:37 10° 21° (NNE) 2,666 7.1 -35.3°
Sets 03:52:12 0° 15° (NNE) 3,608 7.7 -34.9°
